View from above orbital plane
|
View from above satellite
|
Ground track
|
The orbit data is extracted from the following two-line orbital elements,
1 39026U 12072A 21101.51621780 .00002037 00000-0 71813-4 0 9993
2 39026 97.2429 96.0339 0034036 262.7293 97.0078 15.29900652462790
Epoch (UTC): | 11 April 2021 12:23:21 |
Eccentricity: | 0.0034036 |
inclination: | 97.2429° |
perigee height: | 453 km |
apogee height: | 499 km |
right ascension of ascending node: | 96.0339° |
argument of perigee: | 262.7293° |
revolutions per day: | 15.29900652 |
mean anomaly at epoch: | 97.0078° |
orbit number at epoch: | 46279 |
The dashed part of the orbit path shows where the satellite is in the earth's shadow,
|
|